This is the latest recevied weather packets stored in our database for station/object KE8CZD. If no packets are shown the sender has not sent any weather packets the latest 10 day(s).
| Time | Temp. | Humidity | Pressure | Rain* | Wind** | Luminosity | Snow |
|---|---|---|---|---|---|---|---|
| 1777956164 | 18.33° C | 62% | 997 hPa | 0 mm | - | - | - |
| 1777955445 | 19.44° C | 59% | 996.7 hPa | 0 mm | - | - | - |
| 1777955086 | 19.44° C | 59% | 996.4 hPa | 0 mm | - | - | - |
| 1777954724 | 19.44° C | 59% | 996.3 hPa | 0 mm | - | - | - |
| 1777954364 | 19.44° C | 58% | 996.2 hPa | 0 mm | - | - | - |
| 1777953644 | 19.44° C | 58% | 995.9 hPa | 0 mm | - | - | - |
| 1777953285 | 18.89° C | 61% | 995.9 hPa | 0 mm | - | - | - |
| 1777952925 | 18.89° C | 61% | 995.9 hPa | 0 mm | - | - | - |
| 1777952565 | 18.89° C | 61% | 995.9 hPa | 0 mm | - | - | - |
| 1777952204 | 18.89° C | 61% | 995.8 hPa | 0 mm | - | - | - |
| 1777951845 | 18.89° C | 61% | 995.9 hPa | 0 mm | - | - | - |
| 1777951484 | 18.33° C | 62% | 995.8 hPa | 0 mm | - | - | - |
| 1777951125 | 18.33° C | 62% | 996.1 hPa | 0 mm | - | - | - |
| 1777950764 | 18.33° C | 62% | 996.2 hPa | 0 mm | - | - | - |
| 1777950404 | 17.78° C | 63% | 996.3 hPa | 0 mm | - | - | - |
| 1777950044 | 17.78° C | 64% | 996.4 hPa | 0 mm | - | - | - |
| 1777949684 | 17.78° C | 65% | 996.5 hPa | 0 mm | - | - | - |
| 1777949324 | 17.78° C | 66% | 996.4 hPa | 0 mm | - | - | - |
| 1777948965 | 17.22° C | 68% | 996.5 hPa | 0 mm | - | - | - |
| 1777948605 | 17.22° C | 68% | 996.6 hPa | 0 mm | - | - | - |
| 1777948246 | 17.22° C | 68% | 996.6 hPa | 0 mm | - | - | - |
| 1777947884 | 17.22° C | 68% | 996.4 hPa | 0 mm | - | - | - |
| 1777947524 | 17.22° C | 69% | 996.5 hPa | 0 mm | - | - | - |
| 1777947164 | 17.22° C | 69% | 996.6 hPa | 0 mm | - | - | - |
| 1777946805 | 17.22° C | 69% | 996.5 hPa | 0 mm | - | - | - |
* Rain latest hour (hover to see other rain measurements)
** Current wind speed in m/s (hover to see current wind gust speed)